Weather in Kordon

Russia / Perm Krai     57°24′40″N   57°55′00″E
temp.,
°C
wind,
m/s
gust,
m/s
humid.,
%
clouds,
%
prec.,
mm/h
press.,
hPa
HPBL,
m
28 february, sun
sun2823:00−18ese51191100 0.6 1011578
02:00−17ese51293100 0.1 1009527
05:00−17e51391100 0.3 1009526
08:00−18e51289100 0.0 1009546
11:00−17e61191100 0.1 1009574
14:00−13e51088100 0.3 1009630
17:00−13e5990100 0.4 1010644
20:00−15ene51192100 0.2 1011565
1 march, mon
mon123:00−16e41092100 0.4 1013500
02:00−17e4993100 0.3 1014424
05:00−18ene3994100 0.4 1016357
08:00−18ene3794100 0.1 1017337
11:00−17ene249189 0.2 1018313
14:00−11e128393 0.0 1017477
17:00−11e018497 0.1 1017546
20:00−16w1198100 0.0 101620
2 march, tue
tue223:00−18sw129996 0.1 101620
02:00−19ssw2510086 0.0 101492
05:00−19ssw3109993 0.1 1012267
08:00−19ssw41196100 0.0 1010379
11:00−16s51092100 0.1 1008425
14:00−12ssw51192100 0.5 1005594
17:00−11ssw51093100 1.4 1003681
20:00−13ssw41094100 0.7 1001612
3 march, wed
wed323:00−13ssw3995100 1.1 1001506
02:00−13s3895100 0.3 999394
05:00−13sse2796100 0.4 999211
08:00−13s2497100 0.4 998129
11:00−8sw249497 0.4 998280
14:00−5sw2493100 0.1 997410
17:00−4wsw4795100 0.8 998614
20:00−5w51095100 1.1 998668
4 march, thu
thu423:00−9wsw3896100 1.4 1000335
02:00−9w3896100 0.4 1000335
05:00−14w2698100 0.6 1002133
08:00−15sw2498100 0.1 1002107
11:00−11sw3693100 0.3 1002355
14:00−7wsw4789100 0.2 1001814
17:00−7sw5890100 0.4 1000873
20:00−9s41193100 0.1 998620